Flag for Falkland Islands Weather past 2 weeks in Stanley, Falkland Islands

Now
32 °F

Passing clouds.


Feels Like: 26 °F
Forecast: 34 / 38 °F
Wind: 7 mph from Northwest

Location: Mount Pleasant Airport

Current Time: Jul 4, 2015 at 4:26:34 AM

Latest Report: Jul 4, 2015 at 3:50 AM


Visibility: N/A

Pressure: 29.77 "Hg

Humidity: 80%

Dew point: 27 °F

Location of StanleyLocation

Historic Weather in Stanley — Graph

°F

Stanley temperature yesterday

Maximum temperature yesterday: 36 °F (at 12:50 AM)
Minimum temperature yesterday: 30 °F (at 11:50 PM)
Average temperature yesterday: 34 °F

Past Weeks' High & Low Weather Summary

 TemperatureHumidityPressure
High52 °F (Jun 25, 4:50 PM)100% (Jun 19, 9:50 PM)29.95 "Hg (Jun 19, 9:50 PM)
Low27 °F (Jul 1, 2:50 AM)44% (Jun 25, 4:50 PM)28.82 "Hg (Jun 28, 12:50 PM)
Average38 °F85%29.50 "Hg
* Reported Jun 19 2:50 AM — Jul 4 2:50 AM, Stanley, Weather by CustomWeather, © 2015

Note: Actual official high and low records may vary slightly from our data, if they occured in-between our weather recording intervals... More about our weather records

Advertising

Stanley weather history for previous 24 hours

 ConditionsComfort  
Time TempWeatherWind HumidityBarometerVisibility
2:50 AM
Sat, Jul 4
30 °FPassing clouds.8 mph86%29.77 "HgN/A
1:50 AM30 °FPassing clouds.9 mph80%29.80 "HgN/A
12:50 AM28 °FClear.12 mph86%29.80 "Hg10 mi
11:50 PM
Fri, Jul 3
30 °FPassing clouds.8 mph86%29.80 "HgN/A
10:50 PM32 °FPassing clouds.10 mph80%29.80 "HgN/A
9:50 PM32 °FPassing clouds.8 mph87%29.80 "HgN/A
8:50 PM32 °FSprinkles. Partly cloudy.12 mph87%29.80 "HgN/A
7:50 PM32 °FPassing clouds.14 mph87%29.77 "HgN/A
6:50 PM32 °FPassing clouds.10 mph93%29.77 "HgN/A
5:50 PM32 °FScattered showers. Passing clouds.17 mph93%29.74 "HgN/A
4:50 PM32 °FScattered clouds.16 mph93%29.71 "HgN/A
3:50 PM34 °FPartly sunny.16 mph87%29.68 "HgN/A
2:50 PM34 °FPartly sunny.23 mph87%29.68 "HgN/A
2:00 PM36 °FMixture of precip. Partly sunny.18 mph87%29.68 "Hg1 mi
1:50 PM36 °FPartly sunny.18 mph87%29.68 "HgN/A
12:50 PM36 °FPassing clouds.15 mph93%29.68 "HgN/A
12:25 PM34 °FPassing clouds.14 mph100%29.68 "HgN/A
11:50 AM34 °FLight rain. Mostly cloudy.15 mph100%29.68 "Hg3 mi
10:50 AM34 °FLight rain. Partly sunny.15 mph93%29.68 "HgN/A
9:50 AM34 °FPassing clouds.14 mph93%29.65 "HgN/A
8:50 AM34 °FPassing clouds.14 mph93%29.68 "HgN/A
7:50 AM34 °FSprinkles. Partly cloudy.15 mph100%29.65 "HgN/A
6:50 AM34 °FPassing clouds.16 mph100%29.65 "HgN/A
5:50 AM34 °FLight rain. Mostly cloudy.13 mph100%29.65 "HgN/A
4:50 AM36 °FLight rain. Mostly cloudy.16 mph93%29.65 "HgN/A
Weather by CustomWeather, © 2015

See weather overviewHow to use our weather pages